Location: Belvedere Heights
(33.9836°N, 117.3109°W)
Time: 04:52:32
(UTC+00:00)

POLYITAN 1 - Pass Details

Date: 01 June 2024
Orbit: 548 x 570 km, 98.1° (Epoch: 13 June)

Event Time Altitude Azimuth Distance (km) Brightness Sun altitude
Rises 10:59:36 0° 16° (NNE) 2,734 ? -17.6°
Reaches altitude 10° 11:01:45 10° 20° (NNE) 1,833 ? -17.3°
Maximum altitude 11:05:40 61° 101° (E) 625 ? -16.7°
Enters shadow 11:08:23 19° 178° (S) 1,342 ? -16.2°
